�����͌���@�\�w���ɂ��Y���u�C�̈ړ���,,,,,,,,
�@,Time,Lat.,,Long.,,Direction,Speed,
Date(yy/mm/dd),(hh:mm),(deg),(min),(deg),(min),(deg),(m/s),(knots)
2004/5/25,9:40,36,47.748,137,4.152,,,
2004/5/25,9:45,36,47.772,137,4.206,67.5,0.39,0.75
2004/5/25,9:50,36,47.784,137,4.218,53.2,0.12,0.24
2004/5/25,9:55,36,47.802,137,4.248,62.1,0.24,0.46
2004/5/25,10:00,36,47.82,137,4.272,57.3,0.21,0.4
2004/5/25,10:05,36,47.832,137,4.284,53.2,0.12,0.24
2004/5/25,10:10,36,47.85,137,4.302,50.7,0.18,0.34
2004/5/25,10:15,36,47.874,137,4.314,33.7,0.18,0.35
2004/5/25,10:20,36,47.886,137,4.314,18.6,0.08,0.15
2004/5/25,10:25,36,47.892,137,4.326,69.5,0.11,0.21
2004/5/25,10:30,36,47.904,137,4.338,53.2,0.12,0.24
2004/5/25,10:35,36,47.916,137,4.344,39.9,0.1,0.19
2004/5/25,10:40,36,47.928,137,4.356,53.2,0.12,0.24
2004/5/25,10:45,36,47.94,137,4.362,39.9,0.1,0.19
2004/5/25,10:50,36,47.958,137,4.368,29.1,0.13,0.25
2004/5/25,10:55,36,47.964,137,4.38,69.5,0.11,0.21
2004/5/25,11:00,36,47.97,137,4.386,59.1,0.07,0.14
2004/5/25,11:05,36,47.982,137,4.392,39.9,0.1,0.19
2004/5/25,11:10,36,47.994,137,4.398,39.9,0.1,0.19
2004/5/25,11:15,36,48,137,4.392,341.8,0.04,0.08
2004/5/25,11:20,36,48,137,4.386,270,0.01,0.02
2004/5/25,11:25,36,48.018,137,4.356,312,0.21,0.41
2004/5/25,11:30,36,48.03,137,4.338,321.6,0.13,0.26
2004/5/25,11:35,36,48.036,137,4.314,299.2,0.14,0.26
2004/5/25,11:40,36,48.042,137,4.296,309,0.11,0.2
2004/5/25,11:45,36,48.06,137,4.278,328.9,0.16,0.31
2004/5/25,11:50,36,48.066,137,4.248,292.3,0.17,0.33
2004/5/25,11:55,36,48.06,137,4.236,255,0.05,0.1
2004/5/25,12:00,36,48.072,137,4.218,318,0.13,0.25
2004/5/25,12:05,36,48.06,137,4.2,240,0.1,0.2
2004/5/25,12:10,36,48.066,137,4.182,304.6,0.11,0.21
2004/5/25,12:15,36,48.06,137,4.164,261.2,0.09,0.17
2004/5/25,12:20,36,48.054,137,4.146,261.2,0.09,0.17
2004/5/25,12:25,36,48.054,137,4.128,280.7,0.1,0.18
2004/5/25,12:30,36,48.036,137,4.11,225,0.13,0.26
2004/5/25,12:35,36,48.042,137,4.098,314,0.08,0.15
2004/5/25,12:40,36,48.012,137,4.068,225,0.24,0.46


�A,Time,Lat.,,Long.,,Direction,Speed,
Date(yy/mm/dd),(hh:mm),(deg),(min),(deg),(min),(deg),(m/s),(knots)
2004/5/25,12:50,36,47.676,137,4.224,,,
2004/5/25,13:00,36,47.7,137,4.332,76.4,0.38,0.74
2004/5/25,13:05,36,47.712,137,4.392,77.6,0.42,0.81
2004/5/25,13:10,36,47.724,137,4.434,73.2,0.31,0.6
2004/5/25,13:15,36,47.754,137,4.476,56,0.36,0.7
2004/5/25,13:20,36,47.778,137,4.518,61.1,0.34,0.66
2004/5/25,13:25,36,47.808,137,4.548,48,0.3,0.58
2004/5/25,13:30,36,47.844,137,4.578,43.2,0.33,0.63
2004/5/25,13:35,36,47.88,137,4.596,32.8,0.29,0.56
2004/5/25,13:40,36,47.916,137,4.62,38.6,0.31,0.6
2004/5/25,13:45,36,47.952,137,4.632,26.1,0.27,0.52
2004/5/25,13:50,36,47.988,137,4.644,26.1,0.27,0.52
2004/5/25,13:55,36,48.03,137,4.638,358.5,0.29,0.56
2004/5/25,14:00,36,48.078,137,4.626,352.2,0.33,0.64
2004/5/25,14:05,36,48.108,137,4.632,17.2,0.22,0.44
2004/5/25,14:10,36,48.156,137,4.614,345.9,0.34,0.65
2004/5/25,14:20,36,48.246,137,4.602,358.6,0.31,0.6
2004/5/25,14:25,36,48.288,137,4.59,351.2,0.29,0.57
2004/5/25,14:30,36,48.324,137,4.566,334.7,0.28,0.54
2004/5/25,14:35,36,48.36,137,4.542,334.7,0.28,0.54
2004/5/25,14:40,36,48.384,137,4.518,326.2,0.21,0.42


�B,Time,Lat.,,Long.,,Direction,Speed,
Date(yy/mm/dd),(hh:mm),(deg),(min),(deg),(min),(deg),(m/s),(knots)
2004/5/25,9:40,36,47.682,137,4.236,,,
2004/5/25,9:45,36,47.706,137,4.314,73.7,0.53,1.03
2004/5/25,9:50,36,47.7,137,4.356,97.4,0.29,0.56
2004/5/25,9:55,36,47.688,137,4.392,106.7,0.26,0.5
2004/5/25,10:00,36,47.7,137,4.434,75.4,0.29,0.57
2004/5/25,10:05,36,47.712,137,4.476,75.4,0.29,0.57
2004/5/25,10:10,36,47.736,137,4.506,54.8,0.26,0.5
2004/5/25,10:15,36,47.754,137,4.542,65.8,0.27,0.53
2004/5/25,10:20,36,47.766,137,4.578,73.3,0.26,0.5
2004/5/25,10:25,36,47.784,137,4.608,62.1,0.24,0.46
2004/5/25,10:30,36,47.802,137,4.638,62.1,0.24,0.46
2004/5/25,10:35,36,47.826,137,4.662,49.4,0.23,0.44
2004/5/25,10:40,36,47.844,137,4.686,57.3,0.21,0.4
2004/5/25,10:45,36,47.868,137,4.704,42.5,0.2,0.39
2004/5/25,10:50,36,47.892,137,4.716,33.7,0.18,0.35
2004/5/25,10:55,36,47.91,137,4.734,50.7,0.18,0.34
2004/5/25,11:00,36,47.922,137,4.752,61.4,0.15,0.3
2004/5/25,11:05,36,47.94,137,4.77,50.7,0.18,0.34
2004/5/25,11:10,36,47.958,137,4.77,12.6,0.11,0.22
2004/5/25,11:15,36,47.976,137,4.776,29.1,0.13,0.25
2004/5/25,11:20,36,48,137,4.776,9.5,0.15,0.29
2004/5/25,11:25,36,48.03,137,4.77,357.9,0.21,0.42
2004/5/25,11:30,36,48.048,137,4.782,36.4,0.17,0.34
2004/5/25,11:40,36,48.108,137,4.776,2.9,0.21,0.42
2004/5/25,11:45,36,48.132,137,4.764,345.2,0.18,0.35
2004/5/25,11:50,36,48.156,137,4.77,20.2,0.19,0.36
2004/5/25,12:00,36,48.21,137,4.746,345.1,0.2,0.38
2004/5/25,12:05,36,48.222,137,4.734,332.6,0.11,0.21
2004/5/25,12:10,36,48.246,137,4.71,324,0.21,0.41
2004/5/25,12:15,36,48.264,137,4.698,339.4,0.14,0.28
2004/5/25,12:20,36,48.294,137,4.686,346.4,0.21,0.42
2004/5/25,12:25,36,48.306,137,4.668,314.4,0.13,0.25
2004/5/25,12:30,36,48.324,137,4.644,314.6,0.18,0.36


�C,Time,Lat.,,Long.,,Direction,Speed,
Date(yy/mm/dd),(hh:mm),(deg),(min),(deg),(min),(deg),(m/s),(knots)
2004/5/25,12:50,36,47.598,137,4.248,,,
2004/5/25,12:55,36,47.604,137,4.272,74.2,0.19,0.38
2004/5/25,13:00,36,47.598,137,4.29,98.1,0.15,0.29
2004/5/25,13:05,36,47.604,137,4.308,70.5,0.16,0.31
2004/5/25,13:10,36,47.604,137,4.332,85.1,0.19,0.36
2004/5/25,13:15,36,47.616,137,4.356,64.2,0.21,0.4
2004/5/25,13:20,36,47.616,137,4.368,82,0.11,0.22
2004/5/25,13:25,36,47.628,137,4.392,64.2,0.21,0.4
2004/5/25,13:30,36,47.634,137,4.422,76.7,0.23,0.45
2004/5/25,13:40,36,47.658,137,4.458,59.2,0.18,0.35
2004/5/25,13:45,36,47.658,137,4.482,84.6,0.19,0.37
2004/5/25,13:50,36,47.658,137,4.494,81.3,0.12,0.23
2004/5/25,13:55,36,47.67,137,4.506,45,0.15,0.28
2004/5/25,14:00,36,47.67,137,4.518,74.2,0.11,0.21
2004/5/25,14:05,36,47.682,137,4.524,32.7,0.12,0.24
2004/5/25,14:15,36,47.688,137,4.536,54.2,0.08,0.16
2004/5/25,14:20,36,47.682,137,4.542,96.6,0.07,0.13
2004/5/25,14:25,36,47.706,137,4.554,30.2,0.21,0.4
2004/5/25,14:30,36,47.718,137,4.566,45,0.15,0.28
2004/5/25,14:35,36,47.766,137,4.566,5.1,0.33,0.64
2004/5/25,14:40,36,47.766,137,4.59,80.6,0.18,0.35
2004/5/25,14:45,36,47.802,137,4.602,22.3,0.27,0.53
2004/5/25,14:50,36,47.814,137,4.608,32.7,0.12,0.24
2004/5/25,14:55,36,47.856,137,4.602,359.6,0.29,0.57
2004/5/25,15:00,36,47.874,137,4.614,36.8,0.18,0.35
2004/5/25,15:05,36,47.904,137,4.596,341,0.23,0.45
2004/5/25,15:10,36,47.946,137,4.59,359.6,0.29,0.57
2004/5/25,15:15,36,47.982,137,4.566,336.3,0.28,0.55
2004/5/25,15:20,36,48.03,137,4.566,6.1,0.33,0.65
2004/5/25,15:25,36,48.048,137,4.53,307,0.24,0.46
2004/5/25,15:30,36,48.078,137,4.488,313.8,0.31,0.61
2004/5/25,15:35,36,48.114,137,4.464,335.5,0.28,0.54
2004/5/25,15:40,36,48.156,137,4.428,326.9,0.35,0.68
2004/5/25,15:45,36,48.192,137,4.356,299.3,0.49,0.95
2004/5/25,15:50,36,48.234,137,4.302,311.2,0.42,0.82
